TimeEST,TemperatureF,Dew PointF,Humidity,Sea Level PressureIn,VisibilityMPH,Wind Direction,Wind SpeedMPH,Gust SpeedMPH,PrecipitationIn,Events,Conditions,WindDirDegrees,DateUTC
12:53 AM,57.9,50.0,75,30.16,10.0,ENE,3.5,-,N/A,,Clear,60,2013-03-05 05:53:00
1:53 AM,57.0,50.0,77,30.15,10.0,NE,3.5,-,N/A,,Clear,50,2013-03-05 06:53:00
2:53 AM,57.9,51.1,78,30.14,10.0,NE,4.6,-,N/A,,Clear,50,2013-03-05 07:53:00
3:53 AM,57.9,50.0,75,30.12,10.0,ENE,4.6,-,N/A,,Clear,60,2013-03-05 08:53:00
4:53 AM,59.0,52.0,78,30.13,10.0,ENE,3.5,-,N/A,,Clear,60,2013-03-05 09:53:00
5:53 AM,59.0,53.1,81,30.14,10.0,ENE,4.6,-,N/A,,Clear,60,2013-03-05 10:53:00
6:53 AM,59.0,50.0,72,30.15,10.0,NE,5.8,-,N/A,,Partly Cloudy,50,2013-03-05 11:53:00
7:53 AM,63.0,51.1,65,30.16,10.0,NE,9.2,-,N/A,,Partly Cloudy,40,2013-03-05 12:53:00
8:53 AM,66.9,50.0,54,30.17,10.0,ENE,10.4,-,N/A,,Partly Cloudy,70,2013-03-05 13:53:00
9:53 AM,71.1,55.0,57,30.17,10.0,East,10.4,-,N/A,,Partly Cloudy,90,2013-03-05 14:53:00
10:53 AM,73.0,57.0,57,30.17,10.0,East,10.4,-,N/A,,Partly Cloudy,100,2013-03-05 15:53:00
11:53 AM,75.0,50.0,41,30.15,10.0,SE,12.7,-,N/A,,Scattered Clouds,130,2013-03-05 16:53:00
12:53 PM,75.0,50.0,41,30.14,10.0,SE,10.4,-,N/A,,Scattered Clouds,130,2013-03-05 17:53:00
1:53 PM,75.0,51.1,43,30.12,10.0,SSE,10.4,-,N/A,,Scattered Clouds,150,2013-03-05 18:53:00
2:53 PM,73.9,54.0,50,30.10,10.0,SSE,9.2,-,N/A,,Scattered Clouds,150,2013-03-05 19:53:00
3:53 PM,73.0,54.0,51,30.11,10.0,SE,4.6,-,N/A,,Scattered Clouds,130,2013-03-05 20:53:00
4:53 PM,73.0,51.1,46,30.10,10.0,East,6.9,-,N/A,,Scattered Clouds,100,2013-03-05 21:53:00
5:53 PM,71.1,52.0,51,30.11,10.0,Calm,Calm,-,N/A,,Scattered Clouds,0,2013-03-05 22:53:00
7:53 PM,64.9,52.0,63,30.12,10.0,Calm,Calm,-,N/A,,Partly Cloudy,0,2013-03-06 00:53:00
8:53 PM,64.0,53.1,67,30.14,10.0,North,3.5,-,N/A,,Partly Cloudy,10,2013-03-06 01:53:00